Location: Brienzwiler
(46.7508°N, 8.1014°E)
Time: 08:10:37
(UTC+00:00)

NOSS 3-4 (C) - Pass Details

Date: 05 July 2020
Orbit: 891 x 1321 km, 63.4° (Epoch: 12 July)

Event Time Altitude Azimuth Distance (km) Brightness Sun altitude
Rises 22:05:31 0° 320° (NW) 3,802 8.0 -17.9°
Reaches altitude 10° 22:08:02 10° 321° (NW) 2,904 7.1 -18.0°
Maximum altitude 22:15:01 84° 50° (NE) 1,167 3.9 -18.4°
Enters shadow 22:19:54 25° 138° (SE) 2,238 4.9 -18.7°
